This demonstration page uses our WeatherBlox Daily Observations layout. Learn more.

Left ArrowRight Arrow

40.97296, -117.73568

Hourly Observations for January 12, 2022

Temp ( °F °C ) Dew Point ( °F °C ) Humidity (%) Winds ( mph kmh ) Pressure ( in mb ) Visibility ( mi km ) Precip ( " mm )
12:56 am 00:56 Clear 26 -3.3 24 -4.4 92 92 Calm 30.53 1034 10 16 0.00 0.00
1:56 am 01:56 Clear 27 -2.8 24 -4.4 89 89 Calm 30.52 1034 10 16 0.00 0.00
2:56 am 02:56 Clear 26 -3.3 23 -5 88 88 Calm 30.51 1033 10 16 0.00 0.00
3:56 am 03:56 Clear 27 -2.8 24 -4.4 89 89 E 5 7 30.50 1033 10 16 0.00 0.00
4:56 am 04:56 Clear 30 -1.1 26 -3.3 85 85 NE 7 11 30.50 1033 10 16 0.00 0.00
5:56 am 05:56 Clear 27 -2.8 24 -4.4 89 89 ENE 5 7 30.53 1034 10 16 0.00 0.00
6:56 am 06:56 Clear 32 0 26 -3.3 79 79 ENE 9 15 30.51 1033 10 16 0.00 0.00
7:56 am 07:56 Sunny 31 -0.6 26 -3.3 82 82 ENE 10 17 30.51 1033 10 16 0.00 0.00
8:56 am 08:56 Sunny 34 1.1 27 -2.8 76 76 ENE 5 7 30.51 1033 10 16 0.00 0.00
9:56 am 09:56 Sunny 39 3.9 28 -2.2 65 65 ENE 7 11 30.51 1033 10 16 0.00 0.00
10:56 am 10:56 Sunny 43 6.1 29 -1.7 58 58 NE 8 13 30.49 1033 10 16 0.00 0.00
11:56 am 11:56 Sunny 46 7.8 30 -1.1 54 54 NE 7 11 30.45 1031 10 16 0.00 0.00
12:56 pm 12:56 Sunny 49 9.4 30 -1.1 48 48 NNE 13 20 30.40 1030 10 16 0.00 0.00
1:56 pm 13:56 Sunny 50 10 30 -1.1 46 46 NE 7 11 30.42 1030 10 16 0.00 0.00
2:56 pm 14:56 Sunny 51 10.6 29 -1.7 43 43 Calm 30.41 1030 10 16 0.00 0.00
3:56 pm 15:56 Sunny 50 10 29 -1.7 44 44 E 5 7 30.40 1029 10 16 0.00 0.00
4:56 pm 16:56 Clear 43 6.1 30 -1.1 60 60 E 8 13 30.38 1029 10 16 0.00 0.00
5:56 pm 17:56 Clear 42 5.6 30 -1.1 62 62 ENE 9 15 30.38 1029 10 16 0.00 0.00
6:56 pm 18:56 Clear 39 3.9 29 -1.7 67 67 ENE 10 17 30.37 1029 10 16 0.00 0.00
7:56 pm 19:56 Clear 38 3.3 29 -1.7 70 70 ENE 9 15 30.37 1028 10 16 0.00 0.00
8:56 pm 20:56 Clear 37 2.8 29 -1.7 73 73 Calm 30.36 1028 10 16 0.00 0.00
9:56 pm 21:56 Clear 34 1.1 28 -2.2 79 79 NW 3 6 30.35 1028 10 16 0.00 0.00
10:56 pm 22:56 Clear 34 1.1 30 -1.1 85 85 NE 3 6 30.34 1027 10 16 0.00 0.00
11:56 pm 23:56 Clear 30 -1.1 28 -2.2 92 92 Calm 30.34 1027 10 16 0.00 0.00

Powered by AerisWeather